Regional Weather Roundup
Issued by NWS Green Bay, WI

Home | Current Version | Previous Version | Text Only | Print | Product List | Glossary On
Versions: 1 2 3 4 5 6 7 8 9 10 11 12 13 14 15 16 17 18 19 20 21 22 23 24 25 26 27 28 29 30 31 32 33 34 35 36 37 38 39 40 41 42 43 44 45 46 47 48 49 50
000
ASUS43 KGRB 300100
RWRGRB

NORTH-CENTRAL AND NORTHEAST WISCONSIN REGIONAL WEATHER ROUNDUP
NATIONAL WEATHER SERVICE GREEN BAY WI
800 PM CDT MON JUN 29 2015

WIZ005-009-010>012-018-019-300200-
NORTH CENTRAL WISCONSIN

CITY           SKY/WX    TMP DP  RH WIND       PRES   REMARKS
IRONWOOD       NOT AVBL
MANITOWISH WTR NOT AVBL
ARBOR VITAE    NOT AVBL
EAGLE RIVER    NOT AVBL
LAND O LAKES   NOT AVBL
RHINELANDER    CLOUDY    65  59  81 CALM      29.81R
PHILLIPS       PTCLDY    63  60  90 CALM      29.80R
ANTIGO         NOT AVBL
TOMAHAWK       NOT AVBL
MERRILL        NOT AVBL
$$

WIZ013-073-300200-
NORTHEAST WISCONSIN

CITY           SKY/WX    TMP DP  RH WIND       PRES   REMARKS
IRON MOUNTAIN  LGT RAIN  62  60  93 CALM      29.78R
MARINETTE      CLOUDY    66  61  82 SW3       29.75S
$$

WIZ017-030-035>037-045-300200-
CENTRAL WISCONSIN

CITY           SKY/WX    TMP DP  RH WIND       PRES   REMARKS
MEDFORD        NOT AVBL
WAUSAU         CLOUDY    63  59  87 CALM      29.77F
MOSINEE        NOT AVBL
MARSHFIELD     CLOUDY    63  57  81 CALM      29.78S
WISC RAPIDS    CLOUDY    63  58  83 NE3       29.78F
STEVENS POINT  NOT AVBL
WAUPACA        NOT AVBL
SHAWANO        NOT AVBL
CLINTONVILLE   CLOUDY   N/A N/A N/A CALM      29.77R
$$

WIZ038-039-048-051-300200-
FOX VALLEY

CITY           SKY/WX    TMP DP  RH WIND       PRES   REMARKS
NWS GREEN BAY  CLOUDY    69  66  90 CALM      29.76S
APPLETON       MOCLDY    70  61  73 CALM      29.76F
OSHKOSH        HVY RAIN  65  59  81 SW5       29.76F
FOND DU LAC    CLOUDY    69  65  86 W9        29.78S
$$

WIZ022-050-052-300200-
EAST CENTRAL WISCONSIN

CITY           SKY/WX    TMP DP  RH WIND       PRES   REMARKS
STURGEON BAY   CLOUDY    66  57  72 SE6       29.79F
MANITOWOC      NOT AVBL
SHEBOYGAN      MOCLDY    67  59  75 S8        29.78F
$$

LMZ563-521-522-541>543-300200-
LAKESHORE

STATION/POSITION TIME  TEMP    WIND        PRES    VSBY  WAVE
                       AIR SEA DIR/SP/G                  HT/PER
                 (UTC) (F)     (DEG/KT/KT) (MB)    (MI)  (FT/S)
SHEBOYGAN LKSHOR 0000   63     190/ 11/ 11 1009.0R
KEWAUNEE LKSHORE 0000   62     180/ 11/ 12 1007.9R
ALGOMA MARINA    2355          210/ 11/ 13   N/A
NORTHPORT PIER   0000   69     160/  4/  9 1007.5S
N MID LAKE BUOY  2350   56 52  180/  6/  8 1008.1R         1
S GREEN BAY BUOY 0030   71 71  200/ 14/ 14 1009.0R
CHAMBERS ISLAND  0000   69     190/  7/ 13 1007.8R
MENOMINEE LKSHOR 0000   68     160/  9/ 12 1008.4S
$$


USA.gov is the U.S. government's official web portal to all federal, state and local government web resources and services.